Simultaneous Nadir Overpasses (SNOs) Predictions

Prediction of SNOs between AQUA and METOP-B Satellite Orbit:

Table of predicted SNOs for the next 14.0 days since TLE Epoch: 8/3/2024
Index Date (AQUA) Time (AQUA) Lat,Lon (AQUA) SZA (AQUA ) Date (METOP-B) Time (METOP-B) Lat,Lon (METOP-B) SZA (METOP-B ) Distance(km) Time Diff (sec)
1 08/05/2024 09:30:29 76.02, 35.11 59.19 08/05/2024 09:29:43 76.03, 34.98 59.21 3.61 46
2 08/05/2024 10:19:52 -76.11,-157.53 120.70 08/05/2024 10:20:23 -76.11,-157.42 120.71 3.01 31
3 08/08/2024 00:51:08 -76.08, -15.21 120.01 08/08/2024 00:50:46 -76.09, -15.10 120.00 3.16 22
4 08/08/2024 01:40:31 76.13, 152.29 60.06 08/08/2024 01:41:25 76.13, 152.38 60.06 2.39 54
5 08/10/2024 15:22:22 -76.04, 127.17 119.30 08/10/2024 15:21:09 -76.06, 127.18 119.27 2.42 73
6 08/10/2024 16:11:45 76.09, -65.34 60.77 08/10/2024 16:11:48 76.10, -65.35 60.78 0.94 3
7 08/10/2024 17:01:14 -76.47, 101.07 118.82 08/10/2024 17:02:22 -76.46, 103.23 118.87 56.19 68
8 08/13/2024 06:42:57 76.08, 76.94 61.54 08/13/2024 06:42:10 76.05, 76.88 61.52 3.37 47
9 08/13/2024 07:32:19 -76.12,-115.53 118.41 08/13/2024 07:32:50 -76.14,-115.50 118.39 2.23 31
10 08/15/2024 22:03:30 -76.09, 26.81 117.63 08/15/2024 22:03:13 -76.08, 26.70 117.64 3.22 17



Historial Predications of SNOs between AQUA and METOP-B
